Tucson, AZ

12:53 AM MST on November 12, 2019 (GMT -0700)
Tucson International

Weather History for KTUS - July, 2019

Change the Weather History Date:

Monday, July 15, 2019

  Actual Average Record
Temperature  
Mean Temperature 93 °F 87 °F  
Max Temperature 108 °F 100 °F 110 °F (1998)
Min Temperature 78 °F 75 °F 62 °F (1905)
Degree Days  
Heating Degree Days 0 0  
Month to date heating degree days 0 0  
Since 1 June heating degree days 0 0  
Since 1 July heating degree days 0 0  
Cooling Degree Days 28 22  
Month to date cooling degree days 377 342  
Year to date cooling degree days 1362 1438  
Since 1 June cooling degree days 990 936  
Growing Degree Days 44 (Base 50)    
Moisture  
Dew Point 56 °F    
Average Humidity 31    
Maximum Humidity 62    
Minimum Humidity 9    
Precipitation  
Precipitation T in 0.07 in 1.45 in (2017)
Month to date precipitation 0.29 0.81  
Year to date precipitation 5.32 4.08  
Sea Level Pressure  
Sea Level Pressure 29.79 in    
Wind  
Wind Speed 7 mph (SSW)    
Max Wind Speed 18 mph    
Max Gust Speed 25 mph    
Visibility 10 miles    
Events      
T = Trace of Precipitation, MM = Missing Value Source: NWS Daily Summary

Daily Weather History Graph

Daily Weather History Graph

Search for Another Location

Airport or City:

Astronomy

Jul. 15, 2019 Rise Set
Actual Time 5:28 AM MST 7:31 PM MST
Civil Twilight 5:00 AM MST 7:58 PM MST
Nautical Twilight 4:26 AM MST 8:32 PM MST
Astronomical Twilight 3:50 AM MST 9:08 PM MST
Moon 6:50 PM MST (7/15) 4:19 AM MST (7/15)
Length of Visible Light 14h 58m
Length of Day
14h 03m
Waxing Gibbous, 99% of the Moon is Illuminated
Jul 15
Waxing Gibbous
Jul 16
Full
Jul 24
Last Quarter
Jul 31
New
Aug 7
First Quarter

Hourly Weather History & Observations

Time (MST) Temp. Heat Index Dew Point Humidity Pressure Visibility Wind Dir Wind Speed Gust Speed Precip Events Conditions
12:53 AM 82.9 °F 83.3 °F 61.0 °F 47% 29.86 in 10.0 mi ESE 5.8 mph - 0.00 in   Partly Cloudy
1:53 AM 82.0 °F 83.0 °F 62.1 °F 51% 29.83 in 10.0 mi SE 8.1 mph - N/A   Partly Cloudy
2:53 AM 81.0 °F 82.2 °F 63.0 °F 54% 29.81 in 10.0 mi ESE 10.4 mph - N/A   Clear
3:53 AM 79.0 °F - 63.0 °F 58% 29.82 in 10.0 mi North - - N/A   Clear
4:53 AM 79.0 °F - 64.9 °F 62% 29.83 in 10.0 mi ESE 4.6 mph - N/A   Clear
5:53 AM 80.1 °F 81.2 °F 62.1 °F 54% 29.84 in 10.0 mi East 5.8 mph - N/A   Clear
6:53 AM 82.0 °F 82.1 °F 59.0 °F 45% 29.86 in 10.0 mi South 6.9 mph - N/A   Clear
7:53 AM 84.0 °F 84.0 °F 60.1 °F 44% 29.87 in 10.0 mi SSW 5.8 mph - N/A   Clear
8:53 AM 87.1 °F 86.7 °F 60.1 °F 40% 29.86 in 10.0 mi SW 3.5 mph - N/A   Clear
9:53 AM 91.9 °F 90.3 °F 55.9 °F 30% 29.85 in 10.0 mi West 5.8 mph - N/A   Clear
10:53 AM 95.0 °F 93.7 °F 57.0 °F 28% 29.83 in 10.0 mi NW 8.1 mph - N/A   Clear
11:53 AM 100.0 °F 99.2 °F 57.0 °F 24% 29.81 in 10.0 mi North 9.2 mph - N/A   Clear
12:53 PM 100.9 °F 99.6 °F 55.0 °F 22% 29.78 in 10.0 mi North - - N/A   Clear
12:55 PM 102.0 °F 100.6 °F 55.0 °F 21% 29.95 in 10.0 mi NNW 8.1 mph - N/A   Clear
1:53 PM 105.1 °F 103.8 °F 55.0 °F 19% 29.75 in 10.0 mi NNW 9.2 mph 18.4 mph N/A   Clear
2:53 PM 106.0 °F - 48.9 °F 15% 29.72 in 10.0 mi NNW 8.1 mph - N/A   Clear
3:53 PM 106.0 °F - 51.1 °F 16% 29.69 in 10.0 mi WNW 8.1 mph - N/A   Clear
4:53 PM 106.0 °F - 50.0 °F 15% 29.69 in 10.0 mi North 8.1 mph - N/A   Clear
5:53 PM 106.0 °F - 48.9 °F 15% 29.68 in 10.0 mi Variable 5.8 mph - N/A   Clear
6:45 PM 100.9 °F - 52.0 °F 19% 29.86 in 10.0 mi South 13.8 mph - N/A   Clear
6:53 PM 100.9 °F - 52.0 °F 19% 29.69 in 10.0 mi SSW 10.4 mph - N/A   Clear
7:53 PM 96.1 °F 93.8 °F 54.0 °F 24% 29.70 in 10.0 mi SW 4.6 mph - N/A   Clear
8:53 PM 95.0 °F 92.7 °F 54.0 °F 25% 29.73 in 10.0 mi North - - N/A   Clear
9:53 PM 91.9 °F 90.0 °F 55.0 °F 29% 29.75 in 10.0 mi WSW 4.6 mph - N/A   Clear
10:53 PM 91.9 °F 90.0 °F 55.0 °F 29% 29.75 in 10.0 mi SE 3.5 mph - N/A   Clear
11:53 PM 90.0 °F 88.1 °F 55.9 °F 31% 29.75 in 10.0 mi North - - N/A   Clear